Regional Weather Roundup
Issued by NWS

Home | Current Version | Previous Version | Text Only | Print | Product List | Glossary Off
Versions: 1 2 3 4 5 6 7 8 9 10 11 12 13 14 15 16 17 18 19 20 21 22 23 24 25 26 27 28 29 30 31 32 33 34 35 36 37 38 39 40 41 42 43 44 45 46 47 48 49 50

000
ASUS43 KLOT 271308
RWRIL

ILLINOIS REGIONAL WEATHER ROUNDUP
NATIONAL WEATHER SERVICE CHICAGO/ROMEOVILLE IL
700 AM CST MON FEB 27 2017

NOTE: "FAIR" INDICATES FEW OR NO CLOUDS BELOW 12,000 FEET WITH NO
SIGNIFICANT WEATHER AND/OR OBSTRUCTIONS TO VISIBILITY.

* THESE STATIONS ARE NOT UNDER NWS QUALITY CONTROL. THEY ALSO MAY NOT
  REPORT WEATHER SUCH AS PRECIPITATION OR FOG.

ILZ001-002-007-009-015-016-024-271400-
NORTHWEST ILLINOIS

CITY           SKY/WX    TMP DP  RH WIND       PRES   REMARKS
MOLINE         PTCLDY    30  27  88 SE3       30.09S
STERLING*      MOCLDY    31  29  92 CALM      30.12R
$$

ILZ003-004-008-010-011-017-018-271400-
NORTH CENTRAL ILLINOIS

CITY           SKY/WX    TMP DP  RH WIND       PRES   REMARKS
ROCKFORD       PTCLDY    27  24  89 SE3       30.13R
FREEPORT*      CLEAR     24  22  93 SE6       30.12R WCI  17
ROCHELLE*      MOCLDY    28  27  94 SE5       30.12R WCI  23
DE KALB*       CLEAR     27  24  91 S5        30.13R WCI  21
PERU*          CLEAR     28  25  89 S7        30.13R WCI  20
$$

ILZ005-006-012>014-019>023-271400-
NORTHEAST ILLINOIS

CITY           SKY/WX    TMP DP  RH WIND       PRES   REMARKS
CHICAGO-OHARE  PTCLDY    29  23  78 S3        30.13R
CHICAGO-MIDWAY MOCLDY    35  26  69 S6        30.14R WCI  30
AURORA         PTCLDY    27  23  85 SE3       30.13R
LANSING*       PTCLDY    29  27  92 S5        30.16S WCI  24
JOLIET*        CLEAR     30  28  94 CALM      30.15R
WAUKEGAN       CLEAR     25  24  96 CALM      30.13R
DUPAGE AIRPORT PTCLDY    27  22  81 CALM      30.12R
KANKAKEE*      CLEAR     25  23  90 CALM      30.17R
WHEELING       CLEAR     26  22  84 CALM      30.15R
MORRIS*        CLEAR     28  26  90 CALM      30.14R
ROMEOVILLE*    CLEAR     29  28  97 S7        30.14R WCI  22
NORTHERLY ISL    N/A     35  27  73 S5          N/A  WCI  31
$$

LMZ740>746-271400-
SOUTHERN LAKE MICHIGAN

STATION/POSITION SKY/WX   TEMP    WIND        PRES    VSBY  WAVE
                          AIR SEA DIR/SP/G                  HT/PER
                          (F)     (DEG/KT/KT) (MB)    (MI)  (FT/S)
HARRISON CRIB              37     200/  7/  8   N/A
BURNHAM HARBOR             35     200/  5       N/A
CALUMET HARBOR             35     180/  4/  6 1020.1R
BURNS HARBOR               33     190/  6/  9 1021.3R
MICHIGAN CITY              35     170/  7/  8   N/A
$$

ILZ025>027-034>036-040-047-049-050-058-095>099-271400-
WEST-CENTRAL ILLINOIS

CITY           SKY/WX    TMP DP  RH WIND       PRES   REMARKS
QUINCY         CLEAR     32  30  92 SE7       30.08S WCI  26
GALESBURG*     CLEAR     30  30 100 SE5         N/A  WCI  25
MACOMB*        CLEAR     24  24  99 CALM      30.13R FOG
JACKSONVILLE*  MOCLDY    32  31  94 SE6       30.12S WCI  27
PITTSFIELD*    CLEAR     32  32  99 E3        30.11S
$$

ILZ028>032-037-038-041>044-048-051>054-059>061-271400-
CENTRAL ILLINOIS

CITY           SKY/WX    TMP DP  RH WIND       PRES   REMARKS
PONTIAC        CLEAR     28  28  99 SE6       30.15S WCI  22
BLOOMINGTON    CLEAR     30  29  96 SE12      30.14R WCI  20
DECATUR        CLOUDY    36  34  92 E6        30.16R WCI  31
PEORIA         CLEAR     30  28  92 CALM      30.13R
LACON*         CLEAR     29  28  94 CALM      30.13R
LINCOLN*       MOCLDY    33  31  95 S3        30.15R
SPRINGFIELD    PTCLDY    34  31  88 SE6       30.14S WCI  29
TAYLORVILLE    CLOUDY    38  33  84 E7        30.14S WCI  32
$$

ILZ033-039-045-046-055>057-062-063-271400-
EAST-CENTRAL ILLINOIS

CITY           SKY/WX    TMP DP  RH WIND       PRES   REMARKS
CHAMPAIGN      CLOUDY    39  33  79 SE6       30.17R WCI  35
RANTOUL*       CLOUDY    37  32  84 SE7       30.17R WCI  31
MATTOON        CLOUDY    40  34  79 SE5       30.16R
PARIS*         CLOUDY    40  35  83 E5        30.19S
$$

ILZ079-100>102-271400-
SOUTHWEST ILLINOIS

CITY           SKY/WX    TMP DP  RH WIND       PRES   REMARKS
ALTON          PTCLDY    36  32  87 E8        30.12S WCI  29
BELLEVILLE     PTCLDY    39  34  83 CALM      30.12R
CAHOKIA*       PTCLDY    36  30  79 CALM      30.12R
SPARTA*        CLEAR     38  34  85 SE6       30.14R WCI  34
$$

ILZ064>066-069>071-074>076-080>082-084>086-088>090-092>094-271400-
SOUTH-CENTRAL ILLINOIS

CITY           SKY/WX    TMP DP  RH WIND       PRES   REMARKS
CARBONDALE     MOCLDY    41  38  89 SE6       30.13S
CAIRO*         PTCLDY    43  41  93 E3        30.13S
EFFINGHAM*     CLOUDY    41  36  81 CALM      30.18R
MARION         CLOUDY    45  41  87 SE12      30.15R
CENTRALIA*     CLOUDY    44  37  78 E3        30.14R
SALEM*         CLOUDY    45  35  67 SE3       30.15R
METROPOLIS*    CLOUDY    46  43  90 CALM      30.15S
$$

ILZ067-068-072-073-078-083-087-091-271400-
SOUTHEAST ILLINOIS

CITY           SKY/WX    TMP DP  RH WIND       PRES   REMARKS
LAWRENCEVILLE  CLOUDY    43  36  76 SE6       30.19R
FLORA*         CLOUDY    44  37  76 SE5       30.17R
FAIRFIELD*     CLOUDY    43  37  77 CALM      30.16R
HARRISBURG*    CLOUDY    44  40  88 E8        30.16S
ROBINSON*      CLOUDY    41  34  75 SE5       30.19R
CARMI*         CLOUDY    44  41  91 SE7       30.16S
$$

ABBREVIATIONS USED IN REMARKS
   TC - TEMPERATURE IN CELSIUS
  WCI - WIND CHILL INDEX
   HX - HEAT INDEX
  VSB - VISIBILITY
$$





USA.gov is the U.S. government's official web portal to all federal, state and local government web resources and services.